Time,TemperatureF,DewpointF,PressureIn,WindDirection,WindDirectionDegrees,WindSpeedMPH,WindSpeedGustMPH,Humidity,HourlyPrecipIn,Conditions,Clouds,dailyrainin,SolarRadiationWatts/m^2,SoftwareType,DateUTC
2013-02-22 00:01:00,54.0,47.0,-100.00,East,81,13.0,24.0,76,0.00,,,0.00,0.000000,,2013-02-22 10:01:00,
2013-02-22 00:11:00,54.0,47.0,-100.00,East,81,13.0,24.0,76,0.00,,,0.00,0.000000,,2013-02-22 10:11:00,
2013-02-22 00:21:00,54.0,47.0,-100.00,East,81,13.0,24.0,76,0.00,,,0.00,0.000000,,2013-02-22 10:21:00,
2013-02-22 00:31:00,54.0,47.0,-100.00,East,81,13.0,24.0,76,0.00,,,0.00,0.000000,,2013-02-22 10:31:00,
2013-02-22 00:52:00,55.0,43.0,-100.00,NNE,23,6.0,30.0,64,0.00,,,0.00,0.000000,,2013-02-22 10:52:00,
2013-02-22 01:01:00,55.0,43.0,-100.00,NNE,23,6.0,30.0,64,0.00,,,0.00,0.000000,,2013-02-22 11:01:00,
2013-02-22 01:11:00,55.0,43.0,-100.00,NNE,23,6.0,30.0,64,0.00,,,0.00,0.000000,,2013-02-22 11:11:00,
2013-02-22 01:21:00,55.0,43.0,-100.00,NNE,23,6.0,30.0,64,0.00,,,0.00,0.000000,,2013-02-22 11:21:00,
2013-02-22 01:31:00,55.0,43.0,-100.00,NNE,23,6.0,30.0,64,0.00,,,0.00,0.000000,,2013-02-22 11:31:00,
2013-02-22 01:52:00,52.0,41.0,-100.00,NW,326,1.0,19.0,67,0.00,,,0.00,0.000000,,2013-02-22 11:52:00,
2013-02-22 02:02:00,52.0,41.0,-100.00,NW,326,1.0,19.0,67,0.00,,,0.00,0.000000,,2013-02-22 12:02:00,
2013-02-22 02:11:00,52.0,41.0,-100.00,NW,326,1.0,19.0,67,0.00,,,0.00,0.000000,,2013-02-22 12:11:00,
2013-02-22 02:21:00,52.0,41.0,-100.00,NW,326,1.0,19.0,67,0.00,,,0.00,0.000000,,2013-02-22 12:21:00,
2013-02-22 02:32:00,52.0,41.0,-100.00,NW,326,1.0,19.0,67,0.00,,,0.00,0.000000,,2013-02-22 12:32:00,
2013-02-22 02:52:00,51.0,45.0,-100.00,South,185,0.0,9.0,79,0.00,,,0.00,0.000000,,2013-02-22 12:52:00,
2013-02-22 03:01:00,51.0,45.0,-100.00,South,185,0.0,9.0,79,0.00,,,0.00,0.000000,,2013-02-22 13:01:00,
2013-02-22 03:11:00,51.0,45.0,-100.00,South,185,0.0,9.0,79,0.00,,,0.00,0.000000,,2013-02-22 13:11:00,
2013-02-22 03:22:00,51.0,45.0,-100.00,South,185,0.0,9.0,79,0.00,,,0.00,0.000000,,2013-02-22 13:22:00,
2013-02-22 03:31:00,51.0,45.0,-100.00,South,185,0.0,9.0,79,0.00,,,0.00,0.000000,,2013-02-22 13:31:00,
2013-02-22 03:52:00,50.0,43.0,-100.00,NNE,20,1.0,4.0,78,0.00,,,0.00,0.000000,,2013-02-22 13:52:00,
2013-02-22 04:01:00,50.0,43.0,-100.00,NNE,20,1.0,4.0,78,0.00,,,0.00,0.000000,,2013-02-22 14:01:00,
2013-02-22 04:11:00,50.0,43.0,-100.00,NNE,20,1.0,4.0,78,0.00,,,0.00,0.000000,,2013-02-22 14:11:00,
2013-02-22 04:21:00,50.0,43.0,-100.00,NNE,20,1.0,4.0,78,0.00,,,0.00,0.000000,,2013-02-22 14:21:00,
2013-02-22 04:31:00,50.0,43.0,-100.00,NNE,20,1.0,4.0,78,0.00,,,0.00,0.000000,,2013-02-22 14:31:00,
2013-02-22 04:53:00,54.0,47.0,-100.00,NE,55,10.0,10.0,78,0.00,,,0.00,0.000000,,2013-02-22 14:53:00,
2013-02-22 05:01:00,54.0,47.0,-100.00,NE,55,10.0,10.0,78,0.00,,,0.00,0.000000,,2013-02-22 15:01:00,
2013-02-22 05:11:00,54.0,47.0,-100.00,NE,55,10.0,10.0,78,0.00,,,0.00,0.000000,,2013-02-22 15:11:00,
2013-02-22 05:21:00,54.0,47.0,-100.00,NE,55,10.0,10.0,78,0.00,,,0.00,0.000000,,2013-02-22 15:21:00,
2013-02-22 05:31:00,54.0,47.0,-100.00,NE,55,10.0,10.0,78,0.00,,,0.00,0.000000,,2013-02-22 15:31:00,
2013-02-22 05:52:00,55.0,45.0,-100.00,NNW,343,5.0,20.0,68,0.00,,,0.00,0.000000,,2013-02-22 15:52:00,
2013-02-22 06:01:00,55.0,45.0,-100.00,NNW,343,5.0,20.0,68,0.00,,,0.00,0.000000,,2013-02-22 16:01:00,
2013-02-22 06:11:00,55.0,45.0,-100.00,NNW,343,5.0,20.0,68,0.00,,,0.00,0.000000,,2013-02-22 16:11:00,
2013-02-22 06:21:00,55.0,45.0,-100.00,NNW,343,5.0,20.0,68,0.00,,,0.00,0.000000,,2013-02-22 16:21:00,
2013-02-22 06:31:00,55.0,45.0,-100.00,NNW,343,5.0,20.0,68,0.00,,,0.00,0.000000,,2013-02-22 16:31:00,
2013-02-22 06:52:00,55.0,45.0,-100.00,ENE,75,16.0,20.0,70,0.00,,,0.00,0.000000,,2013-02-22 16:52:00,
2013-02-22 07:01:00,55.0,45.0,-100.00,ENE,75,16.0,20.0,70,0.00,,,0.00,0.000000,,2013-02-22 17:01:00,
2013-02-22 07:11:00,55.0,45.0,-100.00,ENE,75,16.0,20.0,70,0.00,,,0.00,0.000000,,2013-02-22 17:11:00,
2013-02-22 07:21:00,55.0,45.0,-100.00,ENE,75,16.0,20.0,70,0.00,,,0.00,0.000000,,2013-02-22 17:21:00,
2013-02-22 07:31:00,55.0,45.0,-100.00,ENE,75,16.0,20.0,70,0.00,,,0.00,0.000000,,2013-02-22 17:31:00,
2013-02-22 07:52:00,55.0,43.0,-100.00,ENE,75,15.0,25.0,63,0.00,,,0.00,1.000000,,2013-02-22 17:52:00,
2013-02-22 08:01:00,55.0,43.0,-100.00,ENE,75,15.0,25.0,63,0.00,,,0.00,1.000000,,2013-02-22 18:01:00,
2013-02-22 08:12:00,55.0,43.0,-100.00,ENE,75,15.0,25.0,63,0.00,,,0.00,1.000000,,2013-02-22 18:12:00,
2013-02-22 08:22:00,55.0,43.0,-100.00,ENE,75,15.0,25.0,63,0.00,,,0.00,1.000000,,2013-02-22 18:22:00,
2013-02-22 08:31:00,55.0,43.0,-100.00,ENE,75,15.0,25.0,63,0.00,,,0.00,1.000000,,2013-02-22 18:31:00,
2013-02-22 08:52:00,57.0,45.0,-100.00,NW,320,2.0,26.0,64,0.00,,,0.00,49.000000,,2013-02-22 18:52:00,
2013-02-22 09:01:00,57.0,45.0,-100.00,NW,320,2.0,26.0,64,0.00,,,0.00,49.000000,,2013-02-22 19:01:00,
2013-02-22 09:11:00,57.0,45.0,-100.00,NW,320,2.0,26.0,64,0.00,,,0.00,49.000000,,2013-02-22 19:11:00,
2013-02-22 09:21:00,57.0,45.0,-100.00,NW,320,2.0,26.0,64,0.00,,,0.00,49.000000,,2013-02-22 19:21:00,
2013-02-22 09:31:00,57.0,45.0,-100.00,NW,320,2.0,26.0,64,0.00,,,0.00,49.000000,,2013-02-22 19:31:00,
2013-02-22 09:52:00,57.0,47.0,-100.00,East,92,19.0,25.0,69,0.00,,,0.00,167.000000,,2013-02-22 19:52:00,
2013-02-22 10:01:00,57.0,47.0,-100.00,East,92,19.0,25.0,69,0.00,,,0.00,167.000000,,2013-02-22 20:01:00,
2013-02-22 10:11:00,57.0,47.0,-100.00,East,92,19.0,25.0,69,0.00,,,0.00,167.000000,,2013-02-22 20:11:00,
2013-02-22 10:21:00,57.0,47.0,-100.00,East,92,19.0,25.0,69,0.00,,,0.00,167.000000,,2013-02-22 20:21:00,
2013-02-22 10:31:00,57.0,47.0,-100.00,East,92,19.0,25.0,69,0.00,,,0.00,167.000000,,2013-02-22 20:31:00,
2013-02-22 10:52:00,60.0,47.0,-100.00,NE,46,6.0,33.0,63,0.00,,,0.00,190.000000,,2013-02-22 20:52:00,
2013-02-22 11:01:00,60.0,47.0,-100.00,NE,46,6.0,33.0,63,0.00,,,0.00,190.000000,,2013-02-22 21:01:00,
2013-02-22 11:11:00,60.0,47.0,-100.00,NE,46,6.0,33.0,63,0.00,,,0.00,190.000000,,2013-02-22 21:11:00,
2013-02-22 11:21:00,60.0,47.0,-100.00,NE,46,6.0,33.0,63,0.00,,,0.00,190.000000,,2013-02-22 21:21:00,
2013-02-22 11:31:00,60.0,47.0,-100.00,NE,46,6.0,33.0,63,0.00,,,0.00,190.000000,,2013-02-22 21:31:00,
2013-02-22 11:52:00,60.0,49.0,-100.00,NE,48,9.0,29.0,68,0.00,,,0.00,244.000000,,2013-02-22 21:52:00,
2013-02-22 12:01:00,60.0,49.0,-100.00,NE,48,9.0,29.0,68,0.00,,,0.00,244.000000,,2013-02-22 22:01:00,
2013-02-22 12:11:00,60.0,49.0,-100.00,NE,48,9.0,29.0,68,0.00,,,0.00,244.000000,,2013-02-22 22:11:00,
2013-02-22 12:21:00,60.0,49.0,-100.00,NE,48,9.0,29.0,68,0.00,,,0.00,244.000000,,2013-02-22 22:21:00,
2013-02-22 12:31:00,60.0,49.0,-100.00,NE,48,9.0,29.0,68,0.00,,,0.00,244.000000,,2013-02-22 22:31:00,
2013-02-22 12:52:00,53.0,53.0,-100.00,West,261,2.0,22.0,99,0.00,,,0.00,250.000000,,2013-02-22 22:52:00,
2013-02-22 13:01:00,53.0,53.0,-100.00,West,261,2.0,22.0,99,0.00,,,0.00,250.000000,,2013-02-22 23:01:00,
2013-02-22 13:11:00,53.0,53.0,-100.00,West,261,2.0,22.0,99,0.00,,,0.00,250.000000,,2013-02-22 23:11:00,
2013-02-22 13:21:00,53.0,53.0,-100.00,West,261,2.0,22.0,99,0.00,,,0.00,250.000000,,2013-02-22 23:21:00,
2013-02-22 13:31:00,53.0,53.0,-100.00,West,261,2.0,22.0,99,0.00,,,0.00,250.000000,,2013-02-22 23:31:00,
2013-02-22 13:52:00,58.0,56.0,-100.00,WSW,254,4.0,16.0,94,0.00,,,0.00,259.000000,,2013-02-22 23:52:00,
2013-02-22 14:01:00,58.0,56.0,-100.00,WSW,254,4.0,16.0,94,0.00,,,0.00,259.000000,,2013-02-23 00:01:00,
2013-02-22 14:11:00,58.0,56.0,-100.00,WSW,254,4.0,16.0,94,0.00,,,0.00,259.000000,,2013-02-23 00:11:00,
2013-02-22 14:21:00,58.0,56.0,-100.00,WSW,254,4.0,16.0,94,0.00,,,0.00,259.000000,,2013-02-23 00:21:00,
2013-02-22 14:31:00,58.0,56.0,-100.00,WSW,254,4.0,16.0,94,0.00,,,0.00,259.000000,,2013-02-23 00:31:00,
2013-02-22 14:52:00,60.0,50.0,-100.00,East,98,10.0,18.0,69,0.00,,,0.00,408.000000,,2013-02-23 00:52:00,
2013-02-22 15:01:00,60.0,50.0,-100.00,East,98,10.0,18.0,69,0.00,,,0.00,408.000000,,2013-02-23 01:01:00,
2013-02-22 15:11:00,60.0,50.0,-100.00,East,98,10.0,18.0,69,0.00,,,0.00,408.000000,,2013-02-23 01:11:00,
2013-02-22 15:21:00,60.0,50.0,-100.00,East,98,10.0,18.0,69,0.00,,,0.00,408.000000,,2013-02-23 01:21:00,
2013-02-22 15:31:00,60.0,50.0,-100.00,East,98,10.0,18.0,69,0.00,,,0.00,408.000000,,2013-02-23 01:31:00,
2013-02-22 15:52:00,59.0,51.0,-100.00,SSE,160,11.0,21.0,74,0.00,,,0.00,592.000000,,2013-02-23 01:52:00,
2013-02-22 16:01:00,59.0,51.0,-100.00,SSE,160,11.0,21.0,74,0.00,,,0.00,592.000000,,2013-02-23 02:01:00,
2013-02-22 16:11:00,59.0,51.0,-100.00,SSE,160,11.0,21.0,74,0.00,,,0.00,592.000000,,2013-02-23 02:11:00,
2013-02-22 16:21:00,59.0,51.0,-100.00,SSE,160,11.0,21.0,74,0.00,,,0.00,592.000000,,2013-02-23 02:21:00,
2013-02-22 16:31:00,59.0,51.0,-100.00,SSE,160,11.0,21.0,74,0.00,,,0.00,592.000000,,2013-02-23 02:31:00,
2013-02-22 16:52:00,50.0,50.0,-100.00,SSW,193,3.0,26.0,99,0.82,,,0.82,280.000000,,2013-02-23 02:52:00,
2013-02-22 17:01:00,50.0,50.0,-100.00,SSW,193,3.0,26.0,99,0.82,,,0.82,280.000000,,2013-02-23 03:01:00,
2013-02-22 17:11:00,50.0,50.0,-100.00,SSW,193,3.0,26.0,99,0.82,,,0.82,280.000000,,2013-02-23 03:11:00,
2013-02-22 17:21:00,50.0,50.0,-100.00,SSW,193,3.0,26.0,99,0.82,,,0.82,280.000000,,2013-02-23 03:21:00,
2013-02-22 17:31:00,50.0,50.0,-100.00,SSW,193,3.0,26.0,99,0.82,,,0.82,280.000000,,2013-02-23 03:31:00,
2013-02-22 17:52:00,53.0,53.0,-100.00,ENE,73,7.0,18.0,99,0.12,,,0.94,31.000000,,2013-02-23 03:52:00,
2013-02-22 18:01:00,53.0,53.0,-100.00,ENE,73,7.0,18.0,99,0.12,,,0.94,31.000000,,2013-02-23 04:01:00,
2013-02-22 18:11:00,53.0,53.0,-100.00,ENE,73,7.0,18.0,99,0.12,,,0.94,31.000000,,2013-02-23 04:11:00,
2013-02-22 18:21:00,53.0,53.0,-100.00,ENE,73,7.0,18.0,99,0.12,,,0.94,31.000000,,2013-02-23 04:21:00,
2013-02-22 18:31:00,53.0,53.0,-100.00,ENE,73,7.0,18.0,99,0.12,,,0.94,31.000000,,2013-02-23 04:31:00,
2013-02-22 18:52:00,54.0,51.0,-100.00,ENE,68,9.0,12.0,88,0.01,,,0.95,60.000000,,2013-02-23 04:52:00,
2013-02-22 19:02:00,54.0,51.0,-100.00,ENE,68,9.0,12.0,88,0.01,,,0.95,60.000000,,2013-02-23 05:02:00,
2013-02-22 19:11:00,54.0,51.0,-100.00,ENE,68,9.0,12.0,88,0.01,,,0.95,60.000000,,2013-02-23 05:11:00,
2013-02-22 19:22:00,54.0,51.0,-100.00,ENE,68,9.0,12.0,88,0.01,,,0.95,60.000000,,2013-02-23 05:22:00,
2013-02-22 19:32:00,54.0,51.0,-100.00,ENE,68,9.0,12.0,88,0.01,,,0.95,60.000000,,2013-02-23 05:32:00,
2013-02-22 19:52:00,54.0,48.0,-100.00,ENE,69,10.0,15.0,81,0.00,,,0.95,4.000000,,2013-02-23 05:52:00,
2013-02-22 20:01:00,54.0,48.0,-100.00,ENE,69,10.0,15.0,81,0.00,,,0.95,4.000000,,2013-02-23 06:01:00,
2013-02-22 20:11:00,54.0,48.0,-100.00,ENE,69,10.0,15.0,81,0.00,,,0.95,4.000000,,2013-02-23 06:11:00,
2013-02-22 20:22:00,54.0,48.0,-100.00,ENE,69,10.0,15.0,81,0.00,,,0.95,4.000000,,2013-02-23 06:22:00,
2013-02-22 20:31:00,54.0,48.0,-100.00,ENE,69,10.0,15.0,81,0.00,,,0.95,4.000000,,2013-02-23 06:31:00,
2013-02-22 20:52:00,54.0,47.0,-100.00,NE,52,6.0,14.0,77,0.00,,,0.95,0.000000,,2013-02-23 06:52:00,
2013-02-22 21:01:00,54.0,47.0,-100.00,NE,52,6.0,14.0,77,0.00,,,0.95,0.000000,,2013-02-23 07:01:00,
2013-02-22 21:11:00,54.0,47.0,-100.00,NE,52,6.0,14.0,77,0.00,,,0.95,0.000000,,2013-02-23 07:11:00,
2013-02-22 21:21:00,54.0,47.0,-100.00,NE,52,6.0,14.0,77,0.00,,,0.95,0.000000,,2013-02-23 07:21:00,
2013-02-22 21:31:00,54.0,47.0,-100.00,NE,52,6.0,14.0,77,0.00,,,0.95,0.000000,,2013-02-23 07:31:00,
2013-02-22 21:52:00,51.0,48.0,-100.00,North,8,0.0,13.0,89,0.00,,,0.95,0.000000,,2013-02-23 07:52:00,
2013-02-22 22:01:00,51.0,48.0,-100.00,North,8,0.0,13.0,89,0.00,,,0.95,0.000000,,2013-02-23 08:01:00,
2013-02-22 22:11:00,51.0,48.0,-100.00,North,8,0.0,13.0,89,0.00,,,0.95,0.000000,,2013-02-23 08:11:00,
2013-02-22 22:21:00,51.0,48.0,-100.00,North,8,0.0,13.0,89,0.00,,,0.95,0.000000,,2013-02-23 08:21:00,
2013-02-22 22:31:00,51.0,48.0,-100.00,North,8,0.0,13.0,89,0.00,,,0.95,0.000000,,2013-02-23 08:31:00,
2013-02-22 22:52:00,52.0,49.0,-100.00,East,83,3.0,10.0,89,0.00,,,0.95,0.000000,,2013-02-23 08:52:00,
2013-02-22 23:01:00,52.0,49.0,-100.00,East,83,3.0,10.0,89,0.00,,,0.95,0.000000,,2013-02-23 09:01:00,
2013-02-22 23:11:00,52.0,49.0,-100.00,East,83,3.0,10.0,89,0.00,,,0.95,0.000000,,2013-02-23 09:11:00,
2013-02-22 23:21:00,52.0,49.0,-100.00,East,83,3.0,10.0,89,0.00,,,0.95,0.000000,,2013-02-23 09:21:00,
2013-02-22 23:31:00,52.0,49.0,-100.00,East,83,3.0,10.0,89,0.00,,,0.95,0.000000,,2013-02-23 09:31:00,
2013-02-22 23:52:00,50.0,50.0,-100.00,NE,52,1.0,11.0,99,0.00,,,-99.99,0.000000,,2013-02-23 09:52:00,